• en France
  • Liste des pays
  • À 7 jours
  • Température de l'eau
  • Carte satellitaire
  • Carte météo
  • Widgets météo
  • user-avatar
    Se connecter

    Météo par heure à Veselovo

    Ce jour, 18 Juillet, Mercredi

    Heure Température Précipitation Vent Pression Humidité
    00:00 +20°C° 0 mm 3 m/s 738 mmHg 96%
    01:00 +20°C° 0 mm 3 m/s 738 mmHg 97%
    02:00 +19°C° 0 mm 2 m/s 738 mmHg 98%
    03:00 +19°C° 0 mm 3 m/s 737 mmHg 97%
    04:00 +19°C° 0 mm 4 m/s 737 mmHg 97%
    05:00 +20°C° 0 mm 5 m/s 737 mmHg 96%
    06:00 +20°C° 0 mm 5 m/s 737 mmHg 94%
    07:00 +20°C° 0 mm 5 m/s 737 mmHg 92%
    08:00 +21°C° 0 mm 5 m/s 737 mmHg 90%
    09:00 +21°C° 0,2 mm 5 m/s 737 mmHg 88%
    10:00 +22°C° 0,2 mm 5 m/s 737 mmHg 86%
    11:00 +22°C° 0,2 mm 5 m/s 737 mmHg 84%
    12:00 +22°C° 0,5 mm 6 m/s 737 mmHg 84%
    13:00 +23°C° 0,5 mm 6 m/s 736 mmHg 84%
    14:00 +23°C° 0,5 mm 6 m/s 736 mmHg 85%
    15:00 +23°C° 0,3 mm 6 m/s 736 mmHg 85%
    16:00 +23°C° 0,3 mm 5 m/s 736 mmHg 86%
    17:00 +22°C° 0,3 mm 5 m/s 736 mmHg 87%
    18:00 +22°C° 0,1 mm 5 m/s 736 mmHg 89%
    19:00 +21°C° 0,1 mm 4 m/s 736 mmHg 91%
    20:00 +20°C° 0,1 mm 4 m/s 736 mmHg 93%
    21:00 +20°C° 0 mm 4 m/s 736 mmHg 94%
    22:00 +20°C° 0 mm 4 m/s 736 mmHg 94%
    23:00 +20°C° 0 mm 4 m/s 736 mmHg 95%

    Demain, 19 Juillet, Jeudi

    Heure Température Précipitation Vent Pression Humidité
    00:00 +20°C° 0,1 mm 4 m/s 736 mmHg 95%
    01:00 +20°C° 0,1 mm 4 m/s 736 mmHg 95%
    02:00 +20°C° 0,1 mm 4 m/s 736 mmHg 94%
    03:00 +20°C° 0,1 mm 4 m/s 736 mmHg 94%
    04:00 +20°C° 0,1 mm 4 m/s 736 mmHg 95%
    05:00 +20°C° 0,1 mm 4 m/s 736 mmHg 95%
    06:00 +20°C° 0,2 mm 4 m/s 736 mmHg 94%
    07:00 +20°C° 0,2 mm 4 m/s 736 mmHg 92%
    08:00 +21°C° 0,2 mm 4 m/s 736 mmHg 91%
    09:00 +21°C° 0,4 mm 4 m/s 736 mmHg 91%
    10:00 +21°C° 0,4 mm 4 m/s 736 mmHg 90%
    11:00 +22°C° 0,4 mm 4 m/s 736 mmHg 89%
    12:00 +22°C° 0,5 mm 4 m/s 736 mmHg 89%
    13:00 +22°C° 0,5 mm 5 m/s 736 mmHg 88%
    14:00 +22°C° 0,5 mm 5 m/s 736 mmHg 88%
    15:00 +22°C° 0,5 mm 5 m/s 736 mmHg 88%
    16:00 +22°C° 0,5 mm 4 m/s 736 mmHg 89%
    17:00 +22°C° 0,5 mm 4 m/s 736 mmHg 90%
    18:00 +21°C° 0,8 mm 4 m/s 735 mmHg 92%
    19:00 +21°C° 0,8 mm 4 m/s 735 mmHg 94%
    20:00 +20°C° 0,8 mm 3 m/s 735 mmHg 96%
    21:00 +20°C° 0,6 mm 3 m/s 735 mmHg 96%
    22:00 +20°C° 0,6 mm 3 m/s 735 mmHg 97%
    23:00 +19°C° 0,6 mm 2 m/s 735 mmHg 98%

    Après-demain, 20 Juillet, Vendredi

    Heure Température Précipitation Vent Pression Humidité
    00:00 +19°C° 0,1 mm 2 m/s 735 mmHg 98%
    01:00 +19°C° 0,1 mm 2 m/s 735 mmHg 98%
    02:00 +19°C° 0,1 mm 2 m/s 735 mmHg 98%
    03:00 +19°C° 0,1 mm 2 m/s 735 mmHg 98%
    04:00 +19°C° 0,1 mm 2 m/s 735 mmHg 98%
    05:00 +19°C° 0,1 mm 2 m/s 736 mmHg 98%
    06:00 +20°C° 0 mm 2 m/s 736 mmHg 96%
    07:00 +21°C° 0 mm 2 m/s 736 mmHg 94%
    08:00 +21°C° 0 mm 2 m/s 736 mmHg 92%
    09:00 +23°C° 0,1 mm 2 m/s 736 mmHg 88%
    10:00 +24°C° 0,1 mm 2 m/s 736 mmHg 84%
    11:00 +25°C° 0,1 mm 2 m/s 737 mmHg 80%
    12:00 +26°C° 0,1 mm 2 m/s 737 mmHg 76%
    13:00 +27°C° 0,1 mm 2 m/s 737 mmHg 73%
    14:00 +28°C° 0,1 mm 2 m/s 737 mmHg 69%
    15:00 +28°C° 0,4 mm 2 m/s 737 mmHg 72%
    16:00 +27°C° 0,4 mm 2 m/s 737 mmHg 75%
    17:00 +27°C° 0,4 mm 2 m/s 737 mmHg 79%
    18:00 +26°C° 0,5 mm 2 m/s 737 mmHg 84%
    19:00 +24°C° 0,5 mm 2 m/s 737 mmHg 89%
    20:00 +23°C° 0,5 mm 2 m/s 737 mmHg 94%
    21:00 +23°C° 0,5 mm 2 m/s 737 mmHg 94%
    22:00 +21°C° 0,5 mm 2 m/s 737 mmHg 95%
    23:00 +21°C° 0,5 mm 2 m/s 738 mmHg 96%

    21 Juillet, Samedi

    Heure Température Précipitation Vent Pression Humidité
    00:00 +20°C° 0,1 mm 2 m/s 738 mmHg 96%
    01:00 +20°C° 0,1 mm 2 m/s 738 mmHg 96%
    02:00 +19°C° 0,1 mm 2 m/s 738 mmHg 96%
    03:00 +20°C° 0,1 mm 2 m/s 738 mmHg 96%
    04:00 +20°C° 0,1 mm 2 m/s 738 mmHg 96%
    05:00 +20°C° 0,1 mm 2 m/s 738 mmHg 96%
    06:00 +21°C° 0 mm 2 m/s 738 mmHg 92%
    07:00 +24°C° 0 mm 2 m/s 738 mmHg 87%
    08:00 +25°C° 0 mm 2 m/s 738 mmHg 83%
    09:00 +26°C° 0,7 mm 2 m/s 738 mmHg 80%
    10:00 +27°C° 0,7 mm 2 m/s 738 mmHg 77%
    11:00 +27°C° 0,7 mm 2 m/s 738 mmHg 75%
    12:00 +28°C° 0,4 mm 2 m/s 738 mmHg 73%
    13:00 +28°C° 0,4 mm 2 m/s 738 mmHg 71%
    14:00 +28°C° 0,4 mm 2 m/s 738 mmHg 68%
    15:00 +28°C° 0,2 mm 2 m/s 738 mmHg 70%
    16:00 +28°C° 0,2 mm 2 m/s 738 mmHg 72%
    17:00 +28°C° 0,2 mm 2 m/s 738 mmHg 74%
    18:00 +26°C° 0,5 mm 2 m/s 738 mmHg 80%
    19:00 +25°C° 0,5 mm 2 m/s 738 mmHg 85%
    20:00 +23°C° 0,5 mm 2 m/s 738 mmHg 91%
    21:00 +23°C° 0,2 mm 2 m/s 738 mmHg 92%
    22:00 +21°C° 0,2 mm 2 m/s 738 mmHg 94%
    23:00 +21°C° 0,2 mm 2 m/s 738 mmHg 95%

    22 Juillet, Dimanche

    Heure Température Précipitation Vent Pression Humidité
    00:00 +20°C° 0 mm 2 m/s 738 mmHg 95%
    01:00 +20°C° 0 mm 2 m/s 738 mmHg 96%
    02:00 +20°C° 0 mm 2 m/s 738 mmHg 96%
    03:00 +20°C° 0,3 mm 2 m/s 738 mmHg 96%
    04:00 +20°C° 0,3 mm 2 m/s 738 mmHg 96%
    05:00 +20°C° 0,3 mm 2 m/s 738 mmHg 96%
    06:00 +23°C° 0 mm 2 m/s 738 mmHg 91%
    07:00 +24°C° 0 mm 3 m/s 738 mmHg 87%
    08:00 +26°C° 0 mm 3 m/s 738 mmHg 83%
    09:00 +27°C° 0,5 mm 3 m/s 738 mmHg 78%
    10:00 +28°C° 0,5 mm 3 m/s 738 mmHg 73%
    11:00 +29°C° 0,5 mm 3 m/s 738 mmHg 68%
    12:00 +29°C° 0,9 mm 4 m/s 738 mmHg 69%
    13:00 +29°C° 0,9 mm 4 m/s 738 mmHg 70%
    14:00 +29°C° 0,9 mm 4 m/s 738 mmHg 71%
    15:00 +28°C° 0,8 mm 4 m/s 738 mmHg 75%
    16:00 +28°C° 0,8 mm 3 m/s 738 mmHg 78%
    17:00 +27°C° 0,8 mm 3 m/s 738 mmHg 81%
    18:00 +26°C° 0,2 mm 3 m/s 738 mmHg 85%
    19:00 +25°C° 0,2 mm 3 m/s 738 mmHg 88%
    20:00 +24°C° 0,2 mm 3 m/s 738 mmHg 91%
    21:00 +23°C° 0,3 mm 2 m/s 738 mmHg 92%
    22:00 +21°C° 0,3 mm 2 m/s 738 mmHg 94%
    23:00 +21°C° 0,3 mm 2 m/s 738 mmHg 95%

    23 Juillet, Lundi

    Heure Température Précipitation Vent Pression Humidité
    00:00 +21°C° 0,1 mm 2 m/s 738 mmHg 95%
    01:00 +20°C° 0,1 mm 2 m/s 738 mmHg 96%
    02:00 +20°C° 0,1 mm 2 m/s 738 mmHg 96%
    03:00 +20°C° 0 mm 2 m/s 738 mmHg 96%
    04:00 +20°C° 0 mm 2 m/s 738 mmHg 96%
    05:00 +21°C° 0 mm 2 m/s 739 mmHg 96%
    06:00 +23°C° 0 mm 2 m/s 739 mmHg 91%
    07:00 +24°C° 0 mm 2 m/s 739 mmHg 87%
    08:00 +26°C° 0 mm 2 m/s 739 mmHg 83%
    09:00 +26°C° 1,3 mm 2 m/s 739 mmHg 81%
    10:00 +27°C° 1,3 mm 3 m/s 739 mmHg 80%
    11:00 +28°C° 1,3 mm 3 m/s 739 mmHg 78%
    12:00 +28°C° 2,9 mm 3 m/s 739 mmHg 79%
    13:00 +27°C° 2,9 mm 3 m/s 739 mmHg 81%
    14:00 +27°C° 2,9 mm 3 m/s 739 mmHg 82%
    15:00 +26°C° 1,4 mm 3 m/s 739 mmHg 84%
    16:00 +26°C° 1,4 mm 2 m/s 739 mmHg 86%
    17:00 +25°C° 1,4 mm 2 m/s 739 mmHg 88%
    18:00 +25°C° 0,1 mm 2 m/s 739 mmHg 90%
    19:00 +24°C° 0,1 mm 3 m/s 739 mmHg 92%
    20:00 +22°C° 0,1 mm 3 m/s 739 mmHg 94%
    21:00 +23°C° 0,1 mm 2 m/s 739 mmHg 94%
    22:00 +21°C° 0,1 mm 2 m/s 739 mmHg 95%
    23:00 +21°C° 0,1 mm 2 m/s 739 mmHg 95%
    Voir plus